TimeEST,TemperatureF,Dew PointF,Humidity,Sea Level PressureIn,VisibilityMPH,Wind Direction,Wind SpeedMPH,Gust SpeedMPH,PrecipitationIn,Events,Conditions,WindDirDegrees,DateUTC
12:53 AM,30.0,25.0,82,30.11,8.0,Calm,Calm,-,N/A,,Clear,0,2012-11-06 05:53:00
1:53 AM,30.0,25.0,82,30.10,7.0,Calm,Calm,-,N/A,,Clear,0,2012-11-06 06:53:00
2:53 AM,28.9,25.0,85,30.09,7.0,Calm,Calm,-,N/A,,Clear,0,2012-11-06 07:53:00
3:53 AM,27.0,24.1,89,30.08,6.0,Calm,Calm,-,N/A,,Clear,0,2012-11-06 08:53:00
4:53 AM,27.0,24.1,89,30.07,6.0,Calm,Calm,-,N/A,,Clear,0,2012-11-06 09:53:00
5:53 AM,27.0,24.1,89,30.08,6.0,Calm,Calm,-,N/A,,Clear,0,2012-11-06 10:53:00
6:53 AM,27.0,25.0,92,30.06,5.0,Calm,Calm,-,N/A,,Clear,0,2012-11-06 11:53:00
7:53 AM,28.9,25.0,85,30.07,5.0,Calm,Calm,-,N/A,,Clear,0,2012-11-06 12:53:00
8:53 AM,32.0,27.0,82,30.08,6.0,Calm,Calm,-,N/A,,Haze,0,2012-11-06 13:53:00
9:53 AM,36.0,30.0,79,30.07,7.0,SE,5.8,-,N/A,,Clear,140,2012-11-06 14:53:00
10:53 AM,41.0,30.0,65,30.06,9.0,SSE,3.5,-,N/A,,Clear,150,2012-11-06 15:53:00
11:53 AM,44.1,28.9,55,30.02,10.0,SSE,5.8,-,N/A,,Clear,160,2012-11-06 16:53:00
12:53 PM,46.9,28.9,50,29.99,10.0,Variable,3.5,-,N/A,,Clear,0,2012-11-06 17:53:00
1:53 PM,48.0,28.9,48,29.97,10.0,South,4.6,-,N/A,,Overcast,180,2012-11-06 18:53:00
2:53 PM,46.9,28.9,50,29.96,10.0,South,4.6,-,N/A,,Overcast,190,2012-11-06 19:53:00
3:53 PM,48.0,30.0,50,29.94,10.0,South,3.5,-,N/A,,Overcast,170,2012-11-06 20:53:00
4:53 PM,46.9,30.0,52,29.93,10.0,SE,3.5,-,N/A,,Overcast,140,2012-11-06 21:53:00
5:53 PM,46.9,30.0,52,29.93,10.0,Calm,Calm,-,N/A,,Overcast,0,2012-11-06 22:53:00
6:53 PM,46.0,30.0,54,29.94,10.0,Calm,Calm,-,N/A,,Overcast,0,2012-11-06 23:53:00
7:53 PM,44.1,33.1,65,29.95,10.0,WNW,9.2,-,N/A,,Overcast,290,2012-11-07 00:53:00
8:53 PM,42.1,35.1,76,29.95,10.0,West,3.5,-,N/A,,Overcast,280,2012-11-07 01:53:00
9:53 PM,41.0,35.1,79,29.94,9.0,WNW,5.8,-,0.00,Rain,Light Rain,300,2012-11-07 02:53:00
10:53 PM,39.9,37.0,89,29.94,6.0,Calm,Calm,-,0.01,Rain,Light Rain,0,2012-11-07 03:53:00
11:42 PM,39.2,37.4,93,29.91,5.0,Calm,Calm,-,0.01,Rain,Light Rain,0,2012-11-07 04:42:00
11:53 PM,39.9,37.9,93,29.92,5.0,Calm,Calm,-,0.02,Rain,Light Rain,0,2012-11-07 04:53:00